GW6938 Weather Reports


time (UTC)temp
C
wind
direction
speed
KPH
gust
KPH
rain 1hr
cm
rain 24hr
cm
rain mn
cm
humidity
%
barometer
mb
20260906181012 31 157 6.4 12.9 0.00 0.08 0.08 65 1015.4
20260906180511 31 230 4.8 11.3 0.00 0.08 0.08 64 1015.3
20260906180008 31 219 6.4 12.9 0.00 0.08 0.08 65 1015.4
20260906175515 31 214 4.8 12.9 0.00 0.08 0.08 66 1015.5
20260906175007 31 200 4.8 9.7 0.00 0.08 0.08 67 1015.6
20260906174509 31 152 3.2 12.9 0.00 0.08 0.08 70 1015.5
20260906174004 31 190 4.8 12.9 0.00 0.08 0.08 69 1015.7
20260906173504 30 188 6.4 12.9 0.00 0.08 0.08 69 1015.7
20260906173021 30 184 3.2 11.3 0.00 0.08 0.08 69 1015.8
20260906172505 30 200 1.6 14.5 0.00 0.08 0.08 72 1015.8
20260906172004 30 132 6.4 14.5 0.00 0.08 0.08 70 1015.8
20260906171520 30 148 4.8 9.7 0.00 0.08 0.08 71 1016.0
20260906171007 30 173 1.6 12.9 0.00 0.08 0.08 73 1016.0
20260906170510 30 185 3.2 12.9 0.00 0.08 0.08 76 1016.0
20260906170023 29 155 4.8 12.9 0.00 0.08 0.08 75 1016.0
20260906165506 29 172 3.2 11.3 0.03 0.08 0.08 75 1016.0
20260906165015 28 164 3.2 11.3 0.03 0.08 0.08 79 1016.2
20260906164523 28 186 4.8 11.3 0.03 0.08 0.08 80 1016.2
20260906164005 28 153 3.2 6.4 0.03 0.08 0.08 84 1016.3
20260906163504 27 184 3.2 6.4 0.03 0.08 0.08 84 1016.4
20260906163014 27 121 0.0 6.4 0.03 0.08 0.08 87 1016.5
20260906162503 27 109 3.2 6.4 0.05 0.08 0.08 86 1016.5
20260906162012 27 92 1.6 3.2 0.05 0.08 0.08 86 1016.6
20260906161512 26 315 0.0 3.2 0.05 0.08 0.08 86 1016.7
20260906161013 26 315 0.0 3.2 0.05 0.08 0.08 87 1016.6
20260906160512 26 315 0.0 3.2 0.05 0.08 0.08 87 1016.6
20260906160028 26 315 1.6 3.2 0.05 0.08 0.08 87 1016.8
20260906155514 26 315 0.0 0.0 0.05 0.05 0.05 87 1016.8
20260906155009 26 315 0.0 3.2 0.05 0.05 0.05 86 1016.8
20260906154540 26 315 0.0 6.4 0.05 0.05 0.05 86 1016.9
20260906154013 26 315 3.2 20.9 0.05 0.05 0.05 86 1017.0
20260906153507 26 334 0.0 20.9 0.05 0.05 0.05 86 1016.8
20260906153031 26 346 8.0 20.9 0.05 0.05 0.05 86 1016.9
20260906152504 26 313 1.6 6.4 0.03 0.03 0.03 86 1016.4
20260906152004 26 169 1.6 9.7 0.03 0.03 0.03 85 1016.1
20260906151512 26 121 1.6 9.7 0.03 0.03 0.03 85 1016.1
20260906151009 26 165 3.2 8.0 0.03 0.03 0.03 85 1016.1
20260906150510 26 155 3.2 12.9 0.03 0.03 0.03 83 1016.1
20260906150027 27 173 3.2 14.5 0.03 0.03 0.03 82 1016.1
20260906145508 27 187 6.4 14.5 0.00 0.00 0.00 81 1016.2
20260906145012 27 146 6.4 14.5 0.00 0.00 0.00 80 1016.0
20260906144532 27 171 3.2 16.1 0.00 0.00 0.00 81 1015.9
20260906144006 27 159 6.4 16.1 0.00 0.00 0.00 81 1015.9
20260906143512 27 169 4.8 14.5 0.00 0.00 0.00 81 1015.9
20260906143024 27 179 4.8 14.5 0.00 0.00 0.00 82 1016.0
20260906142517 26 162 1.6 16.1 0.00 0.00 0.00 82 1016.2
20260906142017 26 197 6.4 16.1 0.00 0.00 0.00 82 1016.1
20260906141510 26 78 4.8 14.5 0.00 0.00 0.00 82 1016.3
20260906141007 26 102 8.0 14.5 0.00 0.00 0.00 82 1016.3
20260906140506 26 201 4.8 12.9 0.00 0.00 0.00 83 1016.3
20260906140019 26 153 3.2 19.3 0.00 0.00 0.00 83 1016.4
20260906135512 26 165 6.4 19.3 0.00 0.00 0.00 83 1016.5
20260906135010 26 198 3.2 16.1 0.00 0.00 0.00 83 1016.4
20260906134524 26 184 6.4 16.1 0.00 0.00 0.00 82 1016.4
20260906134010 26 176 4.8 16.1 0.00 0.00 0.00 82 1016.4
20260906133513 26 141 8.0 16.1 0.00 0.00 0.00 82 1016.3
20260906133045 26 121 3.2 11.3 0.00 0.00 0.00 83 1016.3
20260906132513 26 173 4.8 14.5 0.00 0.00 0.00 84 1016.3
20260906132007 26 161 6.4 14.5 0.00 0.00 0.00 84 1016.3
20260906131536 25 134 3.2 9.7 0.00 0.00 0.00 85 1016.2
20260906131010 25 92 3.2 9.7 0.00 0.00 0.00 85 1016.3
20260906130503 25 106 1.6 9.7 0.00 0.00 0.00 85 1016.3
20260906130018 25 145 1.6 9.7 0.00 0.00 0.00 85 1016.3
20260906125508 25 188 3.2 6.4 0.00 0.00 0.00 85 1016.1
20260906125008 25 121 1.6 6.4 0.00 0.00 0.00 86 1016.0
20260906124521 25 152 1.6 6.4 0.00 0.00 0.00 86 1016.0
20260906124009 25 154 3.2 6.4 0.00 0.00 0.00 86 1015.9
20260906123511 25 102 1.6 6.4 0.00 0.00 0.00 86 1015.9
20260906123036 24 151 3.2 12.9 0.00 0.00 0.00 86 1015.8
20260906122506 24 158 3.2 12.9 0.00 0.00 0.00 87 1015.7
20260906122016 24 175 3.2 9.7 0.00 0.00 0.00 87 1015.6
20260906121523 24 165 1.6 9.7 0.00 0.00 0.00 87 1015.6
20260906121015 24 165 1.6 4.8 0.00 0.00 0.00 87 1015.6
20260906120514 24 165 1.6 4.8 0.00 0.00 0.00 87 1015.6
20260906120017 24 164 1.6 6.4 0.00 0.00 0.00 87 1015.5
20260906115522 24 181 1.6 6.4 0.00 0.00 0.00 87 1015.4
20260906115008 24 155 3.2 6.4 0.00 0.00 0.00 87 1015.3
20260906114517 24 165 3.2 6.4 0.00 0.00 0.00 87 1015.2
20260906114011 24 164 1.6 6.4 0.00 0.00 0.00 87 1015.2
20260906113511 24 165 1.6 6.4 0.00 0.00 0.00 87 1015.2
20260906113027 24 170 1.6 6.4 0.00 0.00 0.00 87 1015.2
20260906112514 24 169 1.6 6.4 0.00 0.00 0.00 87 1015.2
20260906112010 24 169 0.0 6.4 0.00 0.00 0.00 86 1015.2
20260906111530 24 175 1.6 4.8 0.00 0.00 0.00 86 1015.3
20260906111017 24 168 1.6 4.8 0.00 0.00 0.00 86 1015.4
20260906110508 24 168 1.6 4.8 0.00 0.00 0.00 86 1015.4
20260906110030 24 186 0.0 4.8 0.00 0.00 0.00 86 1015.4
20260906105510 24 186 1.6 4.8 0.00 0.00 0.00 86 1015.4
20260906105018 24 173 1.6 4.8 0.00 0.00 0.00 86 1015.3
20260906104533 24 175 1.6 4.8 0.00 0.00 0.00 86 1015.2
20260906104008 24 169 1.6 4.8 0.00 0.00 0.00 86 1015.0
20260906103513 24 159 0.0 4.8 0.00 0.00 0.00 87 1014.9
20260906103027 24 136 1.6 4.8 0.00 0.00 0.00 87 1014.8
20260906102511 24 164 1.6 4.8 0.00 0.00 0.00 87 1014.8
20260906102018 24 158 1.6 4.8 0.00 0.00 0.00 87 1014.8
20260906101523 24 173 1.6 3.2 0.00 0.00 0.00 87 1014.8
20260906101016 24 194 1.6 3.2 0.00 0.00 0.00 86 1014.7
20260906100516 24 172 1.6 4.8 0.00 0.00 0.00 87 1014.7
20260906100023 24 172 1.6 4.8 0.00 0.00 0.00 87 1014.8
20260906095516 24 173 0.0 4.8 0.00 0.00 0.00 87 1014.9
20260906095012 24 167 0.0 3.2 0.00 0.00 0.00 86 1014.8
20260906094517 24 167 0.0 3.2 0.00 0.00 0.00 86 1014.8
20260906094014 24 167 1.6 3.2 0.00 0.00 0.00 86 1014.9
20260906093512 24 167 0.0 4.8 0.00 0.00 0.00 86 1014.9
20260906093033 24 167 0.0 4.8 0.00 0.00 0.00 86 1015.0
20260906092510 24 167 0.0 3.2 0.00 0.00 0.00 86 1015.0
20260906092016 24 167 0.0 4.8 0.00 0.00 0.00 85 1014.9
20260906091525 24 163 1.6 4.8 0.00 0.00 0.00 85 1014.9
20260906091014 24 185 1.6 4.8 0.00 0.00 0.00 85 1014.8
20260906090510 24 179 1.6 4.8 0.00 0.00 0.00 85 1014.8
20260906090033 24 177 1.6 4.8 0.00 0.00 0.00 85 1014.8
20260906085512 24 167 1.6 3.2 0.00 0.00 0.00 84 1014.9
20260906085017 25 167 1.6 3.2 0.00 0.00 0.00 84 1014.9
20260906084535 25 167 1.6 3.2 0.00 0.00 0.00 84 1014.9
20260906084017 25 167 1.6 6.4 0.00 0.00 0.00 84 1014.7
20260906083519 25 165 3.2 6.4 0.00 0.00 0.00 84 1014.6
20260906083029 25 122 3.2 6.4 0.00 0.00 0.00 84 1014.6
20260906082510 25 183 0.0 4.8 0.00 0.00 0.00 84 1014.5
20260906082010 25 173 3.2 4.8 0.00 0.00 0.00 83 1014.5
20260906081542 25 173 1.6 4.8 0.00 0.00 0.00 83 1014.5
20260906081012 25 164 1.6 4.8 0.00 0.00 0.00 83 1014.6
20260906080515 25 173 1.6 3.2 0.00 0.00 0.00 83 1014.6
20260906080026 25 169 1.6 8.0 0.00 0.00 0.00 83 1014.5
20260906075515 25 169 0.0 8.0 0.00 0.00 0.00 82 1014.4
20260906075017 25 186 1.6 6.4 0.00 0.00 0.00 82 1014.4
20260906074524 25 172 1.6 6.4 0.00 0.00 0.00 82 1014.4
20260906074016 25 182 3.2 9.7 0.00 0.00 0.00 82 1014.5
20260906073514 25 196 1.6 9.7 0.00 0.00 0.00 82 1014.5
20260906073031 25 152 4.8 9.7 0.00 0.00 0.00 82 1014.5
20260906072504 25 163 3.2 9.7 0.00 0.00 0.00 82 1014.5
20260906072010 25 180 3.2 9.7 0.00 0.00 0.00 83 1014.5
20260906071514 25 165 1.6 9.7 0.00 0.00 0.00 83 1014.6
20260906071004 25 174 1.6 4.8 0.00 0.00 0.00 82 1014.6
20260906070510 25 142 1.6 6.4 0.00 0.00 0.00 82 1014.7
20260906070014 25 179 1.6 6.4 0.00 0.00 0.00 82 1014.7
20260906065503 25 167 0.0 4.8 0.00 0.00 0.00 82 1014.8
20260906065004 25 156 1.6 4.8 0.00 0.00 0.00 82 1014.9
20260906064506 25 173 3.2 6.4 0.00 0.00 0.00 82 1014.8
20260906064003 25 183 3.2 6.4 0.00 0.00 0.00 81 1014.9
20260906063504 25 158 1.6 6.4 0.00 0.00 0.00 81 1014.8
20260906063011 25 169 1.6 6.4 0.00 0.00 0.00 81 1014.9
20260906062504 26 173 1.6 4.8 0.00 0.00 0.00 81 1015.0
20260906062007 26 160 0.0 3.2 0.00 0.00 0.00 80 1014.9
20260906061505 26 161 1.6 6.4 0.00 0.00 0.00 80 1014.9
20260906061015 26 173 1.6 6.4 0.00 0.00 0.00 80 1014.9
20260906060505 26 159 1.6 6.4 0.00 0.00 0.00 79 1014.9
20260906060017 26 194 3.2 4.8 0.00 0.00 0.00 79 1014.8
20260906055509 26 173 0.0 6.4 0.00 0.00 0.00 78 1014.9
20260906055004 26 179 1.6 8.0 0.00 0.00 0.00 78 1014.9
20260906054523 26 159 1.6 9.7 0.00 0.00 0.00 78 1014.8
20260906054003 26 150 3.2 11.3 0.00 0.00 0.00 78 1014.8
20260906053503 27 149 3.2 11.3 0.00 0.00 0.00 77 1014.7
20260906053007 27 166 0.0 8.0 0.00 0.00 0.00 77 1014.9
20260906052506 27 161 1.6 6.4 0.00 0.00 0.00 77 1014.9
20260906052007 27 165 3.2 6.4 0.00 0.00 0.00 76 1014.9
20260906051520 27 173 1.6 6.4 0.00 0.00 0.00 76 1014.9
20260906051006 27 126 1.6 6.4 0.00 0.00 0.00 76 1015.0
20260906050509 27 150 1.6 6.4 0.00 0.00 0.00 76 1015.0
20260906050018 27 167 1.6 6.4 0.00 0.00 0.00 76 1014.9
20260906045505 27 171 1.6 9.7 0.00 0.00 0.00 76 1015.0
20260906045009 27 152 1.6 9.7 0.00 0.00 0.00 75 1014.9
20260906044512 27 146 3.2 6.4 0.00 0.00 0.00 75 1014.9
20260906044012 27 146 1.6 4.8 0.00 0.00 0.00 75 1014.8
20260906043510 27 135 1.6 6.4 0.00 0.00 0.00 75 1014.9
20260906043004 27 138 1.6 6.4 0.00 0.00 0.00 75 1015.0
20260906042503 27 148 1.6 6.4 0.00 0.00 0.00 75 1015.0
20260906042004 27 171 0.0 6.4 0.00 0.00 0.00 75 1015.0
20260906041507 27 171 1.6 6.4 0.00 0.00 0.00 74 1014.9
20260906041008 28 148 1.6 8.0 0.00 0.00 0.00 75 1014.9
20260906040507 28 168 1.6 9.7 0.00 0.00 0.00 75 1014.9
20260906040018 28 159 1.6 9.7 0.00 0.00 0.00 75 1015.0
20260906035508 28 167 0.0 3.2 0.00 0.00 0.00 75 1014.9
20260906035006 28 141 0.0 4.8 0.00 0.00 0.00 75 1014.9
20260906034527 28 139 1.6 4.8 0.00 0.00 0.00 75 1014.9
20260906034008 28 121 0.0 4.8 0.00 0.00 0.00 75 1014.9
20260906033504 28 107 1.6 8.0 0.00 0.00 0.00 75 1014.7
20260906033024 28 126 1.6 8.0 0.00 0.00 0.00 75 1014.7
20260906032507 28 176 1.6 4.8 0.00 0.00 0.00 74 1014.7
20260906032004 28 144 1.6 4.8 0.00 0.00 0.00 74 1014.6
20260906031511 28 179 1.6 4.8 0.00 0.00 0.00 74 1014.6
20260906031005 28 157 0.0 3.2 0.00 0.00 0.00 74 1014.5
20260906030507 28 148 0.0 4.8 0.00 0.00 0.00 74 1014.3
20260906030016 28 167 1.6 4.8 0.00 0.00 0.00 73 1014.1
20260906025504 28 162 1.6 8.0 0.00 0.00 0.00 73 1014.0
20260906025011 28 168 1.6 9.7 0.00 0.00 0.00 73 1014.0
20260906024516 28 146 1.6 9.7 0.00 0.00 0.00 74 1014.0
20260906024012 28 105 1.6 6.4 0.00 0.00 0.00 73 1013.8
20260906023513 28 145 1.6 4.8 0.00 0.00 0.00 73 1013.9
20260906023012 28 171 1.6 4.8 0.00 0.00 0.00 73 1013.9
20260906022513 29 94 1.6 4.8 0.00 0.00 0.00 73 1013.9
20260906022010 29 163 1.6 4.8 0.00 0.00 0.00 73 1013.8
20260906021509 29 150 1.6 4.8 0.00 0.00 0.00 72 1013.6
20260906021004 29 156 1.6 4.8 0.00 0.00 0.00 72 1013.5
20260906020504 29 150 1.6 4.8 0.00 0.00 0.00 72 1013.4
20260906020010 29 124 0.0 4.8 0.00 0.00 0.00 72 1013.3
20260906015507 29 147 0.0 8.0 0.00 0.00 0.00 72 1013.3
20260906015008 30 147 1.6 8.0 0.00 0.00 0.00 71 1013.2
20260906014526 30 143 0.0 3.2 0.00 0.00 0.00 71 1013.2
20260906014011 30 132 1.6 8.0 0.00 0.00 0.00 70 1013.1
20260906013504 30 127 1.6 8.0 0.00 0.00 0.00 70 1013.0
20260906013024 30 128 1.6 6.4 0.00 0.00 0.00 70 1013.0
20260906012512 30 118 1.6 6.4 0.00 0.00 0.00 70 1012.9
20260906012004 30 139 0.0 8.0 0.00 0.00 0.00 69 1013.0
20260906011526 30 115 1.6 8.0 0.00 0.00 0.00 69 1012.9
20260906011010 30 116 0.0 6.4 0.00 0.00 0.00 69 1012.8
20260906010514 30 129 0.0 9.7 0.00 0.00 0.00 68 1012.9
20260906010008 31 130 3.2 11.3 0.00 0.00 0.00 68 1012.9
20260906005507 31 111 3.2 11.3 0.00 0.00 0.00 68 1012.8
20260906005006 31 99 4.8 8.0 0.00 0.00 0.00 68 1012.8
20260906004516 31 129 3.2 11.3 0.00 0.00 0.00 68 1012.8
20260906004009 31 132 3.2 11.3 0.00 0.00 0.00 67 1012.7
20260906003510 31 89 3.2 9.7 0.00 0.00 0.00 67 1012.7
20260906003017 32 118 1.6 9.7 0.00 0.00 0.00 66 1012.7
20260906002513 32 94 3.2 6.4 0.00 0.00 0.00 65 1012.7
20260906002010 32 125 1.6 11.3 0.00 0.00 0.00 64 1012.6
20260906001514 32 145 4.8 12.9 0.00 0.00 0.00 64 1012.5
20260906001014 32 123 1.6 12.9 0.00 0.00 0.00 63 1012.6
20260906000510 32 189 3.2 11.3 0.00 0.00 0.00 63 1012.5
20260906000011 32 159 3.2 11.3 0.00 0.00 0.00 63 1012.6
20260905235513 32 179 3.2 9.7 0.00 0.00 0.00 63 1012.6
20260905235010 32 152 3.2 9.7 0.00 0.00 0.00 63 1012.6
20260905234511 32 152 1.6 11.3 0.00 0.00 0.00 62 1012.6
20260905234006 33 154 4.8 16.1 0.00 0.00 0.00 61 1012.6
20260905233508 33 101 4.8 16.1 0.00 0.00 0.00 61 1012.5
20260905233017 33 131 4.8 12.9 0.00 0.00 0.00 61 1012.6
20260905232511 33 146 3.2 9.7 0.00 0.00 0.00 61 1012.5
20260905232006 33 176 3.2 9.7 0.00 0.00 0.00 61 1012.5
20260905231526 33 171 1.6 9.7 0.00 0.00 0.00 61 1012.6
20260905231010 33 172 3.2 9.7 0.00 0.00 0.00 60 1012.5
20260905230514 33 150 3.2 12.9 0.00 0.00 0.00 60 1012.5
20260905230028 33 59 4.8 12.9 0.00 0.00 0.00 59 1012.5
20260905225508 33 121 1.6 12.9 0.00 0.00 0.00 60 1012.4
20260905225017 33 106 6.4 12.9 0.00 0.00 0.00 60 1012.4
20260905224529 33 190 6.4 14.5 0.00 0.00 0.00 59 1012.4
20260905224009 33 190 4.8 14.5 0.00 0.00 0.00 60 1012.3
20260905223507 33 152 3.2 14.5 0.00 0.00 0.00 60 1012.2
20260905223014 33 135 6.4 22.5 0.00 0.00 0.00 60 1012.1
20260905222511 33 77 8.0 22.5 0.00 0.00 0.00 60 1012.1
20260905222008 33 142 8.0 17.7 0.00 0.00 0.00 60 1012.1
20260905221518 33 165 6.4 16.1 0.00 0.00 0.00 61 1012.1
20260905221011 33 146 6.4 16.1 0.00 0.00 0.00 60 1012.2
20260905220518 33 92 3.2 16.1 0.00 0.00 0.00 59 1012.3
20260905220012 33 93 4.8 16.1 0.00 0.00 0.00 59 1012.2
20260905215515 33 140 6.4 16.1 0.00 0.00 0.00 57 1012.3
20260905215012 33 93 6.4 16.1 0.00 0.00 0.00 58 1012.3
20260905214530 33 203 3.2 16.1 0.00 0.00 0.00 58 1012.4
20260905214014 33 186 8.0 16.1 0.00 0.00 0.00 58 1012.4
20260905213509 33 145 8.0 16.1 0.00 0.00 0.00 57 1012.5
20260905213030 33 98 4.8 16.1 0.00 0.00 0.00 58 1012.7
20260905212509 33 177 4.8 16.1 0.00 0.00 0.00 57 1012.7
20260905212008 33 111 4.8 16.1 0.00 0.00 0.00 58 1012.8
20260905211521 33 127 6.4 16.1 0.00 0.00 0.00 58 1012.9
20260905211010 32 55 6.4 16.1 0.00 0.00 0.00 59 1012.9
20260905210511 32 135 9.7 16.1 0.00 0.00 0.00 58 1013.1
20260905210027 32 201 4.8 16.1 0.00 0.00 0.00 57 1013.2
20260905205509 32 157 8.0 16.1 0.00 0.00 0.00 56 1013.3
20260905205014 32 88 3.2 19.3 0.00 0.00 0.00 58 1013.3
20260905204525 32 104 6.4 19.3 0.00 0.00 0.00 58 1013.4
20260905204006 32 62 6.4 19.3 0.00 0.00 0.00 58 1013.5
20260905203516 32 132 9.7 17.7 0.00 0.00 0.00 56 1013.6
20260905203027 32 98 8.0 20.9 0.00 0.00 0.00 56 1013.8
20260905202518 32 94 8.0 19.3 0.00 0.00 0.00 56 1013.9
20260905202016 32 146 6.4 20.9 0.00 0.00 0.00 56 1014.1
20260905201521 32 98 8.0 20.9 0.00 0.00 0.00 56 1014.3
20260905201009 32 44 6.4 16.1 0.00 0.00 0.00 57 1014.4
20260905200511 32 46 4.8 14.5 0.00 0.00 0.00 57 1014.4
20260905200014 32 125 4.8 24.1 0.00 0.00 0.00 59 1014.5
20260905195516 32 92 8.0 24.1 0.00 0.00 0.00 59 1014.5
20260905195013 31 75 8.0 19.3 0.00 0.00 0.00 59 1014.6
20260905194529 32 48 9.7 19.3 0.00 0.00 0.00 58 1014.6
20260905194016 31 183 9.7 19.3 0.00 0.00 0.00 59 1014.6
20260905193508 31 107 9.7 19.3 0.00 0.00 0.00 60 1014.7
20260905193031 31 69 8.0 24.1 0.00 0.00 0.00 59 1014.8
20260905192509 31 40 9.7 24.1 0.00 0.00 0.00 60 1014.8
20260905192003 31 188 4.8 17.7 0.00 0.00 0.00 61 1014.9
20260905191511 31 113 4.8 19.3 0.00 0.00 0.00 63 1015.1
20260905191007 31 98 9.7 19.3 0.00 0.00 0.00 60 1015.3
20260905190506 31 94 4.8 19.3 0.00 0.00 0.00 63 1015.4
20260905190039 31 140 8.0 20.9 0.00 0.00 0.00 63 1015.5
20260905185510 31 70 8.0 20.9 0.00 0.00 0.00 62 1015.7
20260905185004 31 112 11.3 19.3 0.00 0.00 0.00 62 1015.9
20260905184531 31 67 9.7 29.0 0.00 0.00 0.00 64 1015.9
20260905184012 31 50 12.9 29.0 0.00 0.00 0.00 64 1016.0
20260905183504 31 25 12.9 20.9 0.00 0.00 0.00 63 1016.1
20260905183028 31 90 12.9 29.0 0.00 0.00 0.00 64 1016.2
20260905182507 31 48 16.1 29.0 0.00 0.00 0.00 64 1016.3
20260905182006 31 30 14.5 27.4 0.00 0.00 0.00 65 1016.2